^^
Station Historical Data
Daily Summary for Nil La, TWC- Units:  Metric    English   Both
« Previous Day
Next Day »
Daily Weekly Monthly Yearly Custom
  High: Low: Average:
Temperature: -17.8 °C 18.2 °C 25.5 °C
Dew Point: -17.8 °C -2.5 °C 4.9 °C
Humidity: Humidity% 8% 30%
Wind Speed: 0km/h 0km/h 3.7km/h
Wind Gust: 0km/h - -
Wind- - SW
Pressure: 0 hPa 1003.9 hPa -
Precipitation: 0 mm    
Historical Graphs
 
 
Tabular Data for Nil La, TWC-
Time Temperature Dew Point Pressure Wind Wind Speed Wind Gust Humidity Rainfall Rate (Hourly) solar Conditions
-17.8 °C -17.8 °C 0 hPa Calm     Humidity% 0 mm SolarRadiationWatts/m^2 W/m2 Conditions
00:04 24.9 °C 7.1 °C 1009 hPa SSW 9.7 km/h 16.1 km/h 32% 0 mm 0.00 W/m2
00:08 24.8 °C 7.4 °C 1009 hPa SSW 9.7 km/h 14.5 km/h 33% 0 mm 0.00 W/m2
00:13 24.7 °C 7.3 °C 1008.7 hPa SSW 13 km/h 14.5 km/h 33% 0 mm 0.00 W/m2
00:19 24.5 °C 7.2 °C 1008.7 hPa SSW 7.9 km/h 12.9 km/h 33% 0 mm 0.00 W/m2
00:23 24.3 °C 7.4 °C 1008.7 hPa SSW 9.7 km/h 14.5 km/h 34% 0 mm 0.00 W/m2
00:29 24.2 °C 7.3 °C 1008.7 hPa SSW 13 km/h 14.5 km/h 34% 0 mm 0.00 W/m2
00:33 24.1 °C 6.8 °C 1008.7 hPa SSW 14.3 km/h 16.1 km/h 33% 0 mm 0.00 W/m2
00:39 24.2 °C 6.9 °C 1008.7 hPa SSW 11.1 km/h 17.7 km/h 33% 0 mm 0.00 W/m2
00:43 24.1 °C 6.8 °C 1008.7 hPa SSW 11.1 km/h 16.1 km/h 33% 0 mm 0.00 W/m2
00:49 24 °C 6.7 °C 1008.7 hPa SSW 11.1 km/h 17.7 km/h 33% 0 mm 0.00 W/m2
00:54 23.9 °C 6.6 °C 1008.7 hPa SSW 7.9 km/h 11.3 km/h 33% 0 mm 0.00 W/m2
00:58 23.8 °C 7 °C 1008.7 hPa SSW 3.2 km/h 8 km/h 34% 0 mm 0.00 W/m2
01:04 23.6 °C 6.8 °C 1008.7 hPa Calm     34% 0 mm 0.00 W/m2
01:09 23.5 °C 6.7 °C 1008.7 hPa SSW 9.7 km/h 9.7 km/h 34% 0 mm 0.00 W/m2
01:13 23.4 °C 6.6 °C 1008.4 hPa SSW 7.9 km/h 9.7 km/h 34% 0 mm 0.00 W/m2
01:19 23.4 °C 6.6 °C 1008.4 hPa SSW 9.7 km/h 11.3 km/h 34% 0 mm 0.00 W/m2
01:23 23.4 °C 6.6 °C 1008.4 hPa SSW 7.9 km/h 11.3 km/h 34% 0 mm 0.00 W/m2
01:29 23.3 °C 6.6 °C 1008.4 hPa SSW 6.4 km/h 9.7 km/h 34% 0 mm 0.00 W/m2
01:33 23.2 °C 6.5 °C 1008.4 hPa SSW 4.7 km/h 8 km/h 34% 0 mm 0.00 W/m2
01:38 23.1 °C 6.4 °C 1008.4 hPa SSW 4.7 km/h 8 km/h 34% 0 mm 0.00 W/m2
01:44 22.9 °C 6.6 °C 1008 hPa Calm     35% 0 mm 0.00 W/m2
01:49 22.8 °C 6.5 °C 1008 hPa Calm     35% 0 mm 0.00 W/m2
01:53 22.6 °C 6.4 °C 1008 hPa Calm     35% 0 mm 0.00 W/m2
01:58 22.4 °C 6.6 °C 1008 hPa Calm     36% 0 mm 0.00 W/m2
02:02 22.2 °C 6.8 °C 1008 hPa Calm     37% 0 mm 0.00 W/m2
02:09 21.9 °C 6.5 °C 1008 hPa Calm     37% 0 mm 0.00 W/m2
02:13 21.7 °C 6.8 °C 1008 hPa Calm     38% 0 mm 0.00 W/m2
02:18 21.6 °C 7.1 °C 1008 hPa Calm     39% 0 mm 0.00 W/m2
02:24 21.3 °C 6.8 °C 1007.7 hPa Calm     39% 0 mm 0.00 W/m2
02:29 21.3 °C 6.8 °C 1007.7 hPa Calm     39% 0 mm 0.00 W/m2
02:33 21.3 °C 6.8 °C 1007.7 hPa Calm     39% 0 mm 0.00 W/m2
02:37 21.3 °C 6.8 °C 1007.7 hPa Calm     39% 0 mm 0.00 W/m2
02:44 21.2 °C 6.7 °C 1007.7 hPa Calm     39% 0 mm 0.00 W/m2
02:48 21.1 °C 6.6 °C 1007.7 hPa Calm     39% 0 mm 0.00 W/m2
02:52 21 °C 6.9 °C 1007.7 hPa Calm     40% 0 mm 0.00 W/m2
02:59 20.8 °C 6.7 °C 1007.7 hPa Calm     40% 0 mm 0.00 W/m2
03:03 20.7 °C 7 °C 1007.7 hPa Calm     41% 0 mm 0.00 W/m2
03:08 20.6 °C 6.9 °C 1007.3 hPa Calm     41% 0 mm 0.00 W/m2
03:12 20.5 °C 7.1 °C 1007.3 hPa Calm     42% 0 mm 0.00 W/m2
03:19 20.4 °C 7.1 °C 1007.3 hPa Calm     42% 0 mm 0.00 W/m2
03:23 20.5 °C 6.8 °C 1007.3 hPa Calm     41% 0 mm 0.00 W/m2
03:28 20.6 °C 6.9 °C 1007.3 hPa Calm     41% 0 mm 0.00 W/m2
03:34 20.6 °C 6.9 °C 1007.3 hPa Calm     41% 0 mm 0.00 W/m2
03:39 20.5 °C 7.1 °C 1007.3 hPa Calm     42% 0 mm 0.00 W/m2
03:44 20.6 °C 6.9 °C 1007.3 hPa Calm     41% 0 mm 0.00 W/m2
03:48 20.7 °C 7 °C 1007.3 hPa SSW 7.9 km/h 11.3 km/h 41% 0 mm 0.00 W/m2
03:52 20.8 °C 7.1 °C 1007.3 hPa SSW 7.9 km/h 11.3 km/h 41% 0 mm 0.00 W/m2
03:59 20.8 °C 7.1 °C 1007 hPa SSW 6.4 km/h 9.7 km/h 41% 0 mm 0.00 W/m2
04:03 20.7 °C 7.3 °C 1007 hPa SSW 7.9 km/h 8 km/h 42% 0 mm 0.00 W/m2
04:09 20.5 °C 7.5 °C 1007 hPa SSW 6.4 km/h 8 km/h 43% 0 mm 0.00 W/m2
04:13 20.3 °C 7.3 °C 1007 hPa SSW 7.9 km/h 8 km/h 43% 0 mm 0.00 W/m2
04:18 20.2 °C 7.6 °C 1007 hPa SSW 6.4 km/h 8 km/h 44% 0 mm 0.00 W/m2
04:24 20 °C 7.7 °C 1007 hPa SSW 6.4 km/h 8 km/h 45% 0 mm 0.00 W/m2
04:28 19.9 °C 7.6 °C 1007 hPa SSW 4.7 km/h 6.4 km/h 45% 0 mm 0.00 W/m2
04:34 19.7 °C 7.4 °C 1007 hPa SSW 4.7 km/h 4.8 km/h 45% 0 mm 0.00 W/m2
04:39 19.6 °C 7.7 °C 1007 hPa Calm   3.2 km/h 46% 0 mm 0.00 W/m2
04:44 19.5 °C 7.6 °C 1007 hPa Calm     46% 0 mm 0.00 W/m2
04:48 19.5 °C 7.6 °C 1007 hPa Calm     46% 0 mm 0.00 W/m2
04:52 19.5 °C 7.6 °C 1007 hPa Calm     46% 0 mm 0.00 W/m2
04:59 19.3 °C 7.7 °C 1006.7 hPa Calm     47% 0 mm 0.00 W/m2
05:03 19.3 °C 7.7 °C 1006.7 hPa Calm     47% 0 mm 0.00 W/m2
05:07 19.3 °C 7.4 °C 1006.7 hPa Calm     46% 0 mm 0.00 W/m2
05:14 19.2 °C 7.6 °C 1006.7 hPa Calm     47% 0 mm 0.00 W/m2
05:19 19.2 °C 7.9 °C 1006.7 hPa Calm     48% 0 mm 0.00 W/m2
05:23 19.1 °C 7.5 °C 1006.7 hPa Calm     47% 0 mm 0.00 W/m2
05:28 19 °C 7.7 °C 1006.7 hPa Calm     48% 0 mm 0.00 W/m2
05:34 18.9 °C 8 °C 1006.7 hPa Calm     49% 0 mm 0.00 W/m2
05:38 18.8 °C 7.9 °C 1006.7 hPa Calm     49% 0 mm 0.00 W/m2
05:43 18.7 °C 7.8 °C 1006.7 hPa Calm     49% 0 mm 0.00 W/m2
05:49 18.6 °C 7.7 °C 1006.7 hPa Calm     49% 0 mm 0.00 W/m2
05:53 18.7 °C 7.8 °C 1006.7 hPa Calm     49% 0 mm 0.00 W/m2
05:57 18.7 °C 7.8 °C 1006.7 hPa Calm     49% 0 mm 0.00 W/m2
06:04 18.6 °C 7.7 °C 1006.7 hPa Calm     49% 0 mm 0.00 W/m2
06:08 18.5 °C 7.6 °C 1006.7 hPa Calm     49% 0 mm 0.00 W/m2
06:13 18.4 °C 7.5 °C 1006.7 hPa Calm     49% 0 mm 0.00 W/m2
06:17 18.4 °C 7.8 °C 1006.7 hPa Calm     50% 0 mm 0.00 W/m2
06:24 18.3 °C 7.7 °C 1007 hPa Calm     50% 0 mm 0.00 W/m2
06:29 18.2 °C 7.3 °C 1007 hPa Calm     49% 0 mm 0.00 W/m2
06:33 18.2 °C 7.6 °C 1007 hPa Calm     50% 0 mm 0.00 W/m2
06:39 18.2 °C 7.6 °C 1007 hPa Calm     50% 0 mm 7.00 W/m2
06:44 18.3 °C 7.7 °C 1007 hPa Calm     50% 0 mm 9.00 W/m2
06:48 18.3 °C 7.4 °C 1007.3 hPa Calm     49% 0 mm 12.00 W/m2
06:54 18.4 °C 7.5 °C 1007.3 hPa Calm     49% 0 mm 18.00 W/m2
06:59 18.7 °C 7.8 °C 1007.3 hPa Calm     49% 0 mm 25.00 W/m2
07:03 18.9 °C 8 °C 1007.3 hPa Calm     49% 0 mm 37.00 W/m2
07:09 19.3 °C 8 °C 1007.3 hPa Calm     48% 0 mm 56.00 W/m2
07:13 19.7 °C 8.1 °C 1007.7 hPa Calm     47% 0 mm 70.00 W/m2
07:18 19.9 °C 7.6 °C 1007.7 hPa Calm     45% 0 mm 86.00 W/m2
07:24 20.3 °C 7.6 °C 1007.7 hPa Calm     44% 0 mm 109.00 W/m2
07:28 20.5 °C 7.8 °C 1007.7 hPa Calm     44% 0 mm 128.00 W/m2
07:34 20.9 °C 8.2 °C 1007.7 hPa Calm     44% 0 mm 155.00 W/m2
07:39 21.1 °C 8 °C 1007.7 hPa Calm     43% 0 mm 176.00 W/m2
07:43 21.3 °C 7.9 °C 1007.7 hPa Calm     42% 0 mm 195.00 W/m2
07:49 21.7 °C 7.5 °C 1007.7 hPa Calm     40% 0 mm 220.00 W/m2
07:53 21.8 °C 7.2 °C 1007.7 hPa Calm     39% 0 mm 239.00 W/m2
07:58 22.1 °C 7.1 °C 1007.7 hPa Calm     38% 0 mm 257.00 W/m2
08:04 22.3 °C 6.9 °C 1008 hPa Calm     37% 0 mm 281.00 W/m2
08:09 22.5 °C 6.3 °C 1008 hPa Calm     35% 0 mm 297.00 W/m2
08:11 22.5 °C 6.7 °C 1008 hPa Calm     36% 0 mm 306.00 W/m2
08:19 22.8 °C 6.5 °C 1008 hPa Calm     35% 0 mm 339.00 W/m2
08:24 22.9 °C 6.2 °C 1008 hPa Calm     34% 0 mm 352.00 W/m2
08:28 23.1 °C 6.4 °C 1008 hPa Calm     34% 0 mm 366.00 W/m2
08:34 23.3 °C 6.1 °C 1008 hPa Calm     33% 0 mm 392.00 W/m2
08:38 23.4 °C 5.8 °C 1008 hPa Calm     32% 0 mm 408.00 W/m2
08:43 23.6 °C 5.5 °C 1008 hPa Calm     31% 0 mm 422.00 W/m2
08:49 23.9 °C 5.7 °C 1008.4 hPa Calm     31% 0 mm 448.00 W/m2
08:54 24.1 °C 5.4 °C 1008.4 hPa Calm     30% 0 mm 462.00 W/m2
08:58 24.3 °C 5.6 °C 1008.4 hPa Calm     30% 0 mm 478.00 W/m2
09:04 24.6 °C 5.4 °C 1008.4 hPa Calm     29% 0 mm 499.00 W/m2
09:09 24.8 °C 5.1 °C 1008.4 hPa Calm     28% 0 mm 512.00 W/m2
09:13 24.9 °C 5.1 °C 1008.4 hPa Calm     28% 0 mm 527.00 W/m2
09:17 25.1 °C 5.3 °C 1008 hPa Calm     28% 0 mm 540.00 W/m2
09:23 25.4 °C 5 °C 1008 hPa Calm     27% 0 mm 564.00 W/m2
09:28 25.8 °C 4.8 °C 1008 hPa Calm     26% 0 mm 582.00 W/m2
09:32 26.2 °C 5.2 °C 1008 hPa Calm     26% 0 mm 596.00 W/m2
09:36 26.4 °C 4.2 °C 1008 hPa Calm     24% 0 mm 606.00 W/m2
09:43 26.7 °C 4.5 °C 1008 hPa Calm     24% 0 mm 629.00 W/m2
09:47 26.9 °C 4 °C 1008 hPa Calm     23% 0 mm 640.00 W/m2
09:54 27.3 °C 5 °C 1008 hPa Calm     24% 0 mm 661.00 W/m2
09:58 27.6 °C 4.6 °C 1008 hPa Calm     23% 0 mm 675.00 W/m2
10:02 27.8 °C 4.1 °C 1008 hPa Calm     22% 0 mm 682.00 W/m2
10:08 28.1 °C 4.4 °C 1008 hPa Calm     22% 0 mm 703.00 W/m2
10:13 28.1 °C 4.4 °C 1008 hPa Calm     22% 0 mm 715.00 W/m2
10:17 28.2 °C 4.5 °C 1008 hPa Calm     22% 0 mm 724.00 W/m2
10:24 28.4 °C 4.6 °C 1008 hPa Calm     22% 0 mm 744.00 W/m2
10:28 28.7 °C 4.2 °C 1008 hPa Calm     21% 0 mm 752.00 W/m2
10:32 28.9 °C 4.4 °C 1008 hPa Calm     21% 0 mm 765.00 W/m2
10:39 29.4 °C 4.1 °C 1008 hPa Calm     20% 0 mm 782.00 W/m2
10:43 29.6 °C 5 °C 1008 hPa SSW 4.7 km/h 8 km/h 21% 0 mm 796.00 W/m2
10:49 29.8 °C 4.4 °C 1007.7 hPa SSW 4.7 km/h 9.7 km/h 20% 0 mm 807.00 W/m2
10:54 29.9 °C 4.5 °C 1007.7 hPa Calm     20% 0 mm 816.00 W/m2
10:58 30.2 °C 3.3 °C 1007.7 hPa SSW 6.4 km/h 11.3 km/h 18% 0 mm 826.00 W/m2
11:02 30.2 °C 3.3 °C 1007.7 hPa Calm   6.4 km/h 18% 0 mm 835.00 W/m2
11:08 30.4 °C 4.2 °C 1007.7 hPa SSW 6.4 km/h 8 km/h 19% 0 mm 849.00 W/m2
11:13 30.6 °C 4.3 °C 1007.7 hPa SSW 6.4 km/h 9.7 km/h 19% 0 mm 856.00 W/m2
11:19 30.8 °C 3.7 °C 1007.7 hPa SSW 4.7 km/h 4.8 km/h 18% 0 mm 868.00 W/m2
11:23 30.9 °C 3.8 °C 1007.7 hPa SSW 6.4 km/h 11.3 km/h 18% 0 mm 875.00 W/m2
11:27 31 °C 3.9 °C 1007.7 hPa SSW 13 km/h 12.9 km/h 18% 0 mm 882.00 W/m2
11:33 31.4 °C 3.4 °C 1007.3 hPa SW 11.1 km/h 12.9 km/h 17% 0 mm 889.00 W/m2
11:37 31.4 °C 3.4 °C 1007.3 hPa SW 7.9 km/h 12.9 km/h 17% 0 mm 896.00 W/m2
11:44 31.4 °C 4.2 °C 1007.3 hPa SW 3.2 km/h 9.7 km/h 18% 0 mm 907.00 W/m2
11:48 31.9 °C 3.8 °C 1007.3 hPa SW 7.9 km/h 12.9 km/h 17% 0 mm 912.00 W/m2
11:54 32.2 °C 3.2 °C 1007 hPa SW 6.4 km/h 14.5 km/h 16% 0 mm 921.00 W/m2
11:58 32.3 °C 3.3 °C 1007 hPa SW 4.7 km/h 12.9 km/h 16% 0 mm 925.00 W/m2
12:04 32.5 °C 3.4 °C 1007 hPa Calm   8 km/h 16% 0 mm 930.00 W/m2
12:08 32.8 °C 3.7 °C 1007 hPa SW 6.4 km/h 11.3 km/h 16% 0 mm 933.00 W/m2
12:14 33.2 °C 3.1 °C 1006.7 hPa SW 6.4 km/h 17.7 km/h 15% 0 mm 940.00 W/m2
12:18 33.3 °C 3.2 °C 1006.7 hPa SW 14.3 km/h 14.5 km/h 15% 0 mm 946.00 W/m2
12:22 33.4 °C 2.3 °C 1006.7 hPa SW 3.2 km/h 12.9 km/h 14% 0 mm 947.00 W/m2
12:28 33.6 °C 1.4 °C 1006.3 hPa SW 11.1 km/h 11.3 km/h 13% 0 mm 949.00 W/m2
12:33 33.7 °C 1.5 °C 1006.3 hPa WSW 6.4 km/h 17.7 km/h 13% 0 mm 953.00 W/m2
12:39 33.6 °C 2.4 °C 1006.3 hPa WSW 4.7 km/h 11.3 km/h 14% 0 mm 954.00 W/m2
12:43 33.9 °C 2.7 °C 1006.3 hPa WSW 11.1 km/h 14.5 km/h 14% 0 mm 951.00 W/m2
12:49 34.3 °C 3 °C 1006.3 hPa WSW 11.1 km/h 19.3 km/h 14% 0 mm 954.00 W/m2
12:53 34.5 °C -0.2 °C 1006.3 hPa WSW 9.7 km/h 14.5 km/h 11% 0 mm 958.00 W/m2
12:59 34.6 °C -1.5 °C 1006.3 hPa WSW 13 km/h 14.5 km/h 10% 0 mm 960.00 W/m2
13:03 34.7 °C -1.4 °C 1006.3 hPa WSW 14.3 km/h 20.9 km/h 10% 0 mm 958.00 W/m2
13:09 34.7 °C -1.4 °C 1006.3 hPa WSW 14.3 km/h 19.3 km/h 10% 0 mm 954.00 W/m2
13:13 34.9 °C 0.1 °C 1006.3 hPa WSW 9.7 km/h 11.3 km/h 11% 0 mm 954.00 W/m2
13:17 35.4 °C -0.9 °C 1006 hPa WSW 6.4 km/h 16.1 km/h 10% 0 mm 958.00 W/m2
13:24 35.4 °C -0.9 °C 1006 hPa WSW 11.1 km/h 16.1 km/h 10% 0 mm 956.00 W/m2
13:28 35.3 °C -0.9 °C 1006 hPa WSW 9.7 km/h 17.7 km/h 10% 0 mm 951.00 W/m2
13:34 35.4 °C 0.5 °C 1005.6 hPa WSW 14.3 km/h 17.7 km/h 11% 0 mm 949.00 W/m2
13:38 35.6 °C 0.6 °C 1005.6 hPa WSW 11.1 km/h 14.5 km/h 11% 0 mm 946.00 W/m2
13:44 35.9 °C 0.8 °C 1005.6 hPa WSW 4.7 km/h 11.3 km/h 11% 0 mm 942.00 W/m2
13:48 36.3 °C -0.2 °C 1005.6 hPa WSW 11.1 km/h 12.9 km/h 10% 0 mm 935.00 W/m2
13:54 36.3 °C -0.2 °C 1005.3 hPa WSW 11.1 km/h 17.7 km/h 10% 0 mm 932.00 W/m2
13:58 36.2 °C 1.1 °C 1005.3 hPa WSW 11.1 km/h 14.5 km/h 11% 0 mm 928.00 W/m2
14:02 36.3 °C -0.2 °C 1005.3 hPa WSW 11.1 km/h 16.1 km/h 10% 0 mm 925.00 W/m2
14:09 36.6 °C 1.4 °C 1005 hPa WSW 11.1 km/h 11.3 km/h 11% 0 mm 925.00 W/m2
14:13 36.9 °C -1.2 °C 1005 hPa WSW 9.7 km/h 14.5 km/h 9% 0 mm 918.00 W/m2
14:19 36.9 °C -1.2 °C 1005 hPa West 9.7 km/h 19.3 km/h 9% 0 mm 907.00 W/m2
14:23 37 °C -1.1 °C 1004.6 hPa West 16.3 km/h 25.7 km/h 9% 0 mm 900.00 W/m2
14:29 36.9 °C -1.2 °C 1004.6 hPa West 6.4 km/h 19.3 km/h 9% 0 mm 889.00 W/m2
14:33 36.8 °C -1.2 °C 1004.6 hPa West 4.7 km/h 8 km/h 9% 0 mm 884.00 W/m2
14:39 37.3 °C -0.9 °C 1004.6 hPa West 17.7 km/h 19.3 km/h 9% 0 mm 875.00 W/m2
14:41 37.4 °C -0.8 °C 1004.6 hPa West 13 km/h 20.9 km/h 9% 0 mm 872.00 W/m2
14:49 37.3 °C -0.9 °C 1004.3 hPa West 3.2 km/h 19.3 km/h 9% 0 mm 856.00 W/m2
14:54 37.3 °C -2.5 °C 1004.3 hPa West 7.9 km/h 22.5 km/h 8% 0 mm 847.00 W/m2
14:58 37.4 °C -0.8 °C 1003.9 hPa West 6.4 km/h 12.9 km/h 9% 0 mm 840.00 W/m2
15:04 37.8 °C -2.1 °C 1003.9 hPa West 3.2 km/h 16.1 km/h 8% 0 mm 828.00 W/m2
15:08 37.8 °C -2.1 °C 1003.9 hPa Calm   6.4 km/h 8% 0 mm 817.00 W/m2
15:13 38 °C -2 °C 1003.9 hPa West 13 km/h 12.9 km/h 8% 0 mm 809.00 W/m2
Canyon Roadhouse, Fishriver Canyon, Namibia
Compliments of Weather Underground - 2.5 mb